Home   Weather   Caen   Past weeks

Flag for France Past Weather in Caen, Lower Normandy, France — Yesterday and Last 2 Weeks

50 °F


Feels Like: 50 °F
Forecast: 51 / 60 °F
Wind: No wind

Location: Caen Airport

Current Time: Oct 25, 2016 at 3:24:57 AM

Latest Report: Oct 25, 2016 at 3:00 AM

Visibility: 0 mi

Pressure: 30.07 "Hg

Humidity: 100%

Dew Point: 50 °F

Location of CaenLocation

Past Weather in Caen — Graph


Caen Temperature Yesterday

Maximum temperature yesterday: 57 °F (at 2:30 PM)
Minimum temperature yesterday: 48 °F (at 12:00 AM)
Average temperature yesterday: 52 °F

High & Low Weather Summary for the Past Weeks

High64 °F (Oct 17, 1:30 PM)100% (Oct 10, 2:30 AM)30.30 "Hg (Oct 10, 2:30 AM)
Low36 °F (Oct 11, 6:30 AM)52% (Oct 17, 3:00 PM)29.62 "Hg (Oct 14, 2:30 PM)
Average50 °F86%29.99 "Hg
* Reported Oct 10 2:00 AM — Oct 25 2:00 AM, Caen, Weather by CustomWeather, © 2016

Note: Actual official high and low records may vary slightly from our data, if they occured in-between our weather recording intervals... More about our weather records


Caen Weather History for the Previous 24 Hours

Scroll right to see more
Time TempWeatherWind HumidityBarometerVisibility
2:00 AM
Tue, Oct 25
50 °FFog.No wind100%30.04 "Hg1 mi
1:30 AM50 °FFog.No wind100%30.04 "Hg1 mi
1:00 AM48 °FLight fog.3 mph100%30.01 "Hg2 mi
12:30 AM50 °FFog.5 mph100%30.01 "Hg2 mi
12:00 AM52 °FFog.No wind94%30.01 "Hg1 mi
11:30 PM
Mon, Oct 24
50 °FFog.5 mph100%30.01 "Hg2 mi
11:00 PM52 °FFog.6 mph100%29.98 "Hg3 mi
10:30 PM54 °FClear.No wind94%29.98 "Hg4 mi
10:00 PM54 °FFog.3 mph94%29.98 "Hg3 mi
9:30 PM54 °FFog.3 mph94%29.95 "Hg3 mi
9:00 PM54 °FCool.5 mph100%29.95 "Hg4 mi
8:30 PM54 °FClear.3 mph100%29.95 "Hg4 mi
8:00 PM55 °FClear.3 mph94%29.92 "Hg4 mi
7:30 PM55 °FCool.3 mph94%29.92 "Hg6 mi
7:00 PM55 °FClear.5 mph94%29.92 "Hg6 mi
6:30 PM57 °FSunny.6 mph88%29.89 "Hg10 mi
6:00 PM57 °FSunny.5 mph88%29.89 "Hg10 mi
5:30 PM57 °FPassing clouds.3 mph88%29.89 "HgN/A
5:00 PM57 °FSunny.5 mph88%29.89 "Hg10 mi
4:30 PM57 °FPartly sunny.3 mph88%29.86 "HgN/A
4:00 PM57 °FPartly sunny.2 mph88%29.86 "HgN/A
3:30 PM57 °FOvercast.2 mph88%29.86 "HgN/A
3:00 PM57 °FPartly sunny.2 mph88%29.86 "HgN/A
2:30 PM57 °FPassing clouds.1 mph82%29.86 "HgN/A
2:00 PM54 °FScattered clouds.2 mph94%29.86 "HgN/A
1:30 PM54 °FPartly sunny.2 mph94%29.86 "HgN/A
1:00 PM52 °FLow clouds.3 mph100%29.86 "Hg5 mi
12:30 PM52 °FLow clouds.2 mph100%29.83 "Hg5 mi
12:00 PM52 °FCool.2 mph94%29.83 "Hg4 mi
11:30 AM52 °FFog.6 mph94%29.83 "Hg1 mi
11:00 AM50 °FFog.6 mph100%29.83 "Hg1 mi
10:30 AM50 °FFog.7 mph100%29.83 "Hg0 mi
10:00 AM50 °FFog.6 mph100%29.83 "Hg0 mi
9:30 AM50 °FFog.5 mph94%29.80 "Hg0 mi
9:00 AM48 °FFog.2 mph100%29.80 "Hg0 mi
8:30 AM50 °FFog.No wind94%29.77 "Hg1 mi
8:00 AM50 °FFog.No wind100%29.77 "Hg1 mi
7:30 AM50 °FFog.2 mph100%29.77 "Hg1 mi
7:00 AM50 °FFog.3 mph100%29.77 "Hg1 mi
6:30 AM50 °FFog.3 mph100%29.74 "Hg1 mi
6:00 AM50 °FDense fog.6 mph100%29.74 "Hg1 mi
5:30 AM50 °FFog.7 mph94%29.77 "Hg2 mi
5:00 AM50 °FFog.6 mph94%29.74 "Hg3 mi
4:30 AM48 °FFog.5 mph100%29.74 "Hg3 mi
4:00 AM48 °FFog.6 mph100%29.74 "Hg3 mi
3:30 AM50 °FFog.7 mph94%29.74 "Hg2 mi
3:00 AM50 °FCool.6 mph94%29.74 "Hg4 mi
Weather by CustomWeather, © 2016

See weather overviewHow to use our weather pages